METEOR 2-5 DEB, 28555

Orbit data source: Space-Track

METEOR 2-5 DEB, 28555 is space debris in LEO originally from a launch on Wed, 31 Oct 1979 UTC launched from the Plesetsk Missile And Space Complex (PKMTR). Debris objects in space refer to the collection of defunct objects orbiting the Earth. Examples of debris include non-operational satellites, rocket bodies, and fragments generated from explosions, collisions, or faulty payload assembly.

Loading next visibility...
Identifier
28555, 1979-095D
Orbit
LEO
Country
Flag of CISCIS
Related business
Manufacturer
Unknown
Mission
Spacecraft
Bus & Motor
Unknown
Mass
Unknown
Launch date (UTC)
1979-10-31 (47 years ago)
Launch vehicle
Unknown
Launch site
Plesetsk Missile And Space Complex (PKMTR)
Object type
Payload
Rocket body
Debris
Shape & HBR
Unknown shape, 0.1 m
Radar Cross Section
Small (<0.1 m²)

Expand to show TLE details & history
Last TLE update: 9 hours ago

TLE from 9 hours ago
0 METEOR 2-5 DEB
1 28555U 79095D   26123.72022508  .00096520  00000-0  45324-2 0  9997
2 28555  81.1593 291.0025 0004171 207.6109 152.4900 15.19185031241070
Epoch: 2026-05-03T17:17Z
TLE epoch observation values (Epoch: 2026-05-03T17:17:07.446Z)
Latitude
-0.00009°
Longitude
170.10174°
Altitude
513.895 km
Speed
7.605 km/s
True Right ascension
19h 24m 00s
True Declination
0° 00' 00"
Sunlit
Object was in daylight at epoch
Visualization orbit readout
Latitude
Unknown
Longitude
Unknown
Altitude
Unknown
Speed
Unknown
Apparent Right ascension
Unknown
Apparent Declination
Unknown
Sunlit
N/A
Visualization observer readout
Local Sidereal Time
10:29:24
Azimuth
Unknown
Elevation
Unknown
Doppler factor
Unknown
Orbital elements
Apogee altitude
508.208 km
Perigee altitude
502.465 km
Semi-major axis
6,883.473 km
Eccentricity
0.00042
Inclination
81.1593°
RAAN
291.0025°
Arg. of periapsis
207.6109°
True anomaly
152.51207°
Mean anomaly
152.49°
Eccentric anomaly
152.50103°
Mean motion
3.80042 °/min
Orbital period
94.73 mins
BSTAR
0.0045324
Loading maneuver chart data...
Computing Atmospheric mass density...

Documentation

Showing up to 5 results
|